Location: Chuathbaluk
(61.5726°N, 159.2454°W)
Time: 14:53:39
(UTC+00:00)

ZACube-1 - Pass Details

Date: 19 January 2021
Orbit: 583 x 666 km, 97.6° (Epoch: 01 March)

Event Time Altitude Azimuth Distance (km) Brightness Sun altitude
Rises 14:31:21 0° 21° (NNE) 3,024 ? -33.7°
Reaches altitude 10° 14:34:15 10° 40° (NE) 2,107 ? -33.3°
Maximum altitude 14:37:26 18° 84° (E) 1,617 ? -33.0°
Drops below altitude 10° 14:40:36 10° 128° (SE) 2,089 ? -32.6°
Sets 14:43:27 0° 147° (SSE) 2,988 ? -32.3°
